Aérodrome :
LOGIN :

S'inscrire | Disclaimer

   EN    FR    IT 

 










Légende :    VFR   VFR Marginal   IFR   IFR Intensif   IFR Très Intensif
Visi : 
Plafond : 
>= 8 km
>= 3000ft
5 à 8 km
1000 à 3000 ft
1500m à 5 km
500 à 1000 ft
800 à 1500m
200 à 500 ft
< 800m
< 200 ft
Symboles :   Orages  Brouillard  Fortes neiges  Fortes précipitations  Vent > 20 kt
SIGMETs :   Divers  Orages  Givrage  Turbulence  Onde Orograph.  Cendres Volcan.







- Altitude de l'aérodrome : 102 ft
- Code IATA : EXT
- Voir les cartes d'approche


EGTE - Exeter

DERNIER METAR :
  • 242020Z 29015KT 9999 FEW010 SCT015 11/09 Q1010

METARs EXPIRÉS :
  • 241950Z 24010KT 5000 -DZRA FEW015 SCT020 12/10 Q1010
  • 241920Z 23011KT 9999 BKN020 12/10 Q1009
  • 241850Z 24014KT 9999 SCT012 13/10 Q1009
  • 241820Z 20013KT 9999 BKN014 13/10 Q1009
  • 241750Z 22014KT 9999 BKN017 13/10 Q1010

TAF TAF EGTE
Valide du 24 à 21h jusqu'au 25 à 03h UTC


241953Z 2421/2503 20012KT 9999 SCT014
TEMPO 2421/2501 7000 -RA BKN012
PROB30
TEMPO 2421/2501 3000 RADZ BR BKN006
Pas de NOTAMs connus pour ce terrain.



MET'MAP, la Météo Aéronautique d'un coup d'oeil ! - Copyright ORBIFLY Décembre 2007 - Disclaimer

ORBIFLY MET'MAP TEAM :

Programmation & Développement : Alexandra Zaïnal
Conception & Développement : Baudouin d'Aumeries
Co-Programmation & Développement : Marc-Olivier Méhu
Soutien technique & logistique : Manuel Goepfert

Contact : metmap@orbifly.com




SOURCES & CREDITS :

   NOAA